[[{"header":{"parameterUnit":"m.s-1","parameterCategory":1,"la1":30.2991,"la2":30.254,"lo1":-89.0895,"lo2":-89.0444,"dy":0.0017,"dx":0.0017,"nx":28,"ny":28,"refTime":"2024-08-28T03:00:00:Z","depth":0,"parameterNumber":2,"parameterNumberName":"U-component_of_WINDS"},"data":[0,0,0,0,0,0,0,0,0,0,0,0,0,0,0,0,0,0,0,0,0,0,0,0,0,0,0,0,0,0,0,0,0,0,0,0,0,0,0,0,0,0,0,0,0,0,0,0,0,0,0,0,0,0,0,0,0,0,-3.1386,-3.1386,0,-3.134,-3.134,-3.1339,-3.1173,-3.1169,-3.1166,-3.1162,-3.112,-3.1122,-3.1125,0,0,0,0,0,0,0,0,0,0,0,0,0,-3.1334,-3.1336,-3.1386,-3.1386,-3.1385,-3.1341,-3.134,-3.1339,-3.1174,-3.1169,-3.1165,-3.116,-3.1119,-3.1122,-3.1125,0,0,0,0,0,0,0,0,0,0,0,0,0,-3.133,-3.1337,-3.1386,-3.1297,-3.1289,-3.1341,-3.134,-3.1339,-3.1175,-3.1169,-3.1164,-3.1158,-3.1118,-3.1122,-3.1125,-3.1261,0,0,-3.1136,-3.1138,0,0,0,0,0,0,0,0,-3.133,-3.1332,-3.1311,-3.1303,-3.1294,-3.1257,-3.1306,-3.1313,-3.1176,-3.1218,-3.1162,-3.1155,-3.117,-3.1169,-3.1173,-3.1259,-3.1257,-3.1137,-3.1139,-3.114,-3.1141,0,0,0,0,0,0,0,-3.1331,-3.1333,-3.1368,-3.1311,-3.1301,-3.1261,-3.1254,-3.1307,-3.1227,-3.1214,-3.1202,-3.1199,-3.1165,-3.117,-3.1171,-3.1257,-3.1136,-3.114,-3.1142,-3.1143,-3.145,-3.1456,0,0,0,0,0,0,-3.1343,-3.1334,-3.137,-3.1367,-3.1298,-3.1266,-3.1258,-3.1275,-3.1226,-3.1213,-3.1204,-3.1191,-3.1167,-3.1167,-3.1169,-3.1323,-3.114,-3.1144,-3.1146,-3.1445,-3.1452,-3.1458,0,0,0,0,0,0,-3.1343,-3.1348,-3.1372,-3.1347,-3.1347,-3.1273,-3.1293,-3.1277,-3.1282,-3.1218,-3.1203,-3.1224,-3.1162,-3.1164,-3.1239,-3.132,-3.1145,-3.1149,-3.1437,-3.1447,-3.1455,-3.1635,0,0,0,0,0,0,-3.1342,-3.1349,-3.1399,-3.135,-3.1349,-3.1442,-3.1297,-3.128,-3.1288,-3.1271,-3.1233,-3.1221,-3.1158,-3.1234,-3.1242,-3.1321,-3.1151,-3.143,-3.1442,-3.1452,-3.1621,-3.1649,-3.1672,0,0,0,0,0,-3.1341,-3.1453,-3.1402,-3.1408,-3.141,-3.1447,-3.1446,-3.1371,-3.1295,-3.1345,-3.1304,-3.1222,-3.131,-3.1243,-3.1251,-3.1333,-3.1424,-3.1438,-3.1451,-3.161,-3.1643,-3.1672,0,0,0,0,0,0,-3.1516,-3.1445,-3.1388,-3.1487,-3.1474,-3.1418,-3.1479,-3.1409,-3.1418,-3.1402,-3.1309,-3.1302,-3.139,-3.1369,-3.1296,-3.1461,-3.1353,-3.1369,-3.1471,-3.1503,-3.1528,-3.1531,-3.1154,0,0,0,0,0,-3.1566,-3.16,-3.1536,-3.163,-3.1626,-3.1555,-3.1568,-3.151,-3.1493,-3.1487,-3.1451,-3.144,-3.1464,-3.1482,-3.1502,-3.1618,-3.1607,-3.1678,-3.1703,-3.1724,-3.1739,-3.1798,-3.1828,-3.1503,-3.1502,-3.1502,0,0,-3.1669,-3.1635,-3.1662,-3.1664,-3.1647,-3.1686,-3.1551,-3.1598,-3.1625,-3.1495,-3.1562,-3.1536,-3.1517,-3.1613,-3.1653,-3.1598,-3.1826,-3.1742,-3.1759,-3.1762,-3.1815,-3.1846,-3.1873,-3.1512,-3.151,-3.1509,0,0,-3.1877,-3.1855,-3.1929,-3.1915,-3.189,-3.1841,-3.186,-3.1815,-3.1791,-3.1857,-3.176,-3.1793,-3.1837,-3.1827,-3.1828,-3.2031,-3.1956,-3.2041,-3.2174,-3.2232,-3.2258,-3.228,-3.2352,-3.2379,-3.2055,-3.2056,-3.2056,0,-3.201,-3.2062,-3.1977,-3.2029,-3.2033,-3.1915,-3.199,-3.1981,-3.1965,-3.1971,-3.1908,-3.1961,-3.194,-3.2031,-3.208,-3.2085,-3.2103,-3.2044,-3.2261,-3.2282,-3.2302,-3.2369,-3.2396,-3.2066,-3.2065,-3.2064,-3.2063,0,-3.2225,-3.2263,-3.2327,-3.2311,-3.2322,-3.2387,-3.2312,-3.2334,-3.2276,-3.2234,-3.2303,-3.2274,-3.2284,-3.2302,-3.2247,-3.2385,-3.2351,-3.2277,-3.2167,-3.2344,-3.2406,-3.2431,-3.2081,-3.2077,-3.2074,-3.2072,0,0,-3.2542,-3.2478,-3.2503,-3.2494,-3.2457,-3.2486,-3.2545,-3.2553,-3.2573,-3.2566,-3.2613,-3.2653,-3.2583,-3.2584,-3.2527,-3.2579,-3.2741,-3.2497,-3.2495,-3.2542,-3.2891,-3.2946,-3.2977,-3.2691,-3.2696,-3.2699,-3.2892,0,-3.2738,-3.2832,-3.2758,-3.2866,-3.29,-3.2788,-3.2839,-3.2824,-3.2787,-3.2811,-3.277,-3.28,-3.2706,-3.2705,-3.2752,-3.2711,-3.2809,-3.2696,-3.2734,-3.2736,-3.2741,-3.3009,-3.3068,-3.3251,-3.2916,-3.292,-3.2922,0,-3.298,-3.2981,-3.3092,-3.3047,-3.3059,-3.3106,-3.3107,-3.3131,-3.3111,-3.3081,-3.3082,-3.301,-3.3066,-3.2959,-3.3034,-3.2959,-3.297,-3.2953,-3.2958,-3.2958,-3.2839,-3.3015,-3.3308,-3.3335,-3.296,-3.2957,-3.2954,0,-3.3198,-3.3228,-3.3297,-3.3293,-3.3243,-3.3279,-3.326,-3.3234,-3.3244,-3.3246,-3.3251,-3.3261,-3.3266,-3.3275,-3.3209,-3.3137,-3.3293,-3.318,-3.3269,-3.3271,-3.3305,-3.3304,-3.3603,-3.3316,-3.3315,-3.3315,-3.3314,0,-3.3424,-3.3496,-3.3394,-3.3437,-3.3515,-3.3429,-3.3509,-3.3478,-3.3456,-3.3492,-3.3398,-3.3434,-3.3344,-3.3372,-3.332,-3.339,-3.3394,-3.3371,-3.3356,-3.3378,-3.3381,-3.3383,-3.3368,-3.3322,-3.332,-3.3319,-3.3318,0,-3.3679,-3.3614,-3.3682,-3.3629,-3.3617,-3.3677,-3.3631,-3.3669,-3.3626,-3.3673,-3.3679,-3.3611,-3.3638,-3.3573,-3.3592,-3.3557,-3.3656,-3.3622,-3.3662,-3.3651,-3.3743,-3.3735,-3.4053,-3.409,-3.3781,-3.3784,-3.3787,0,-3.3827,-3.3879,-3.3831,-3.3847,-3.3832,-3.386,-3.3869,-3.3787,-3.38,-3.3781,-3.3822,-3.3841,-3.3851,-3.39,-3.3853,-3.3867,-3.3831,-3.3942,-3.3833,-3.3853,-3.3831,-3.3828,-3.3833,-3.3964,-3.3968,-3.3971,-3.3974,0,-3.4096,-3.406,-3.4075,-3.4079,-3.4091,-3.4091,-3.4084,-3.4104,-3.4016,-3.4036,-3.4061,-3.407,-3.4087,-3.4107,-3.411,-3.4092,-3.4019,-3.4008,-3.4029,-3.4052,-3.4072,-3.4061,-3.3722,-3.4001,-3.3998,-3.3996,-3.3995,-3.3994,-3.43,-3.4341,-3.4312,-3.4332,-3.4318,-3.4314,-3.4346,-3.4306,-3.4325,-3.4331,-3.4283,-3.4319,-3.4297,-3.4293,-3.4283,-3.4311,-3.426,-3.4291,-3.4299,-3.4307,-3.4322,-3.4069,-3.4311,-3.431,-3.431,-3.4309,-3.4308,0,-3.4562,-3.4538,-3.4557,-3.4549,-3.4565,-3.4493,-3.4482,-3.45,-3.4532,-3.4518,-3.4529,-3.4559,-3.4577,-3.4533,-3.4545,-3.4576,-3.4543,-3.4582,-3.4578,-3.4575,-3.4366,-3.4346,-3.4608,-3.4608,-3.4608,-3.4608,-3.4608,-3.4608,-3.47,-3.4764,-3.4726,-3.4783,-3.4759,-3.4791,-3.4791,-3.4787,-3.4774,-3.481,-3.4825,-3.4795,-3.4768,-3.4778,-3.4792,-3.4778,-3.4787,-3.4838,-3.4813,-3.4619,-3.4589,-3.4561,-3.4542,-3.4841,-3.4841,-3.5018,-3.502,-3.5021]},{"header":{"parameterUnit":"m.s-1","parameterCategory":1,"la1":30.2991,"la2":30.254,"lo1":-89.0895,"lo2":-89.0444,"dy":0.0017,"dx":0.0017,"nx":28,"ny":28,"refTime":"2024-08-28T03:00:00:Z","depth":0,"parameterNumber":3,"parameterNumberName":"V-component_of_WINDS"},"data":[0,0,0,0,0,0,0,0,0,0,0,0,0,0,0,0,0,0,0,0,0,0,0,0,0,0,0,0,0,0,0,0,0,0,0,0,0,0,0,0,0,0,0,0,0,0,0,0,0,0,0,0,0,0,0,0,0,0,-0.7606,-0.7606,0,-0.7613,-0.7613,-0.7613,-0.7644,-0.7645,-0.7645,-0.7646,-0.7652,-0.7652,-0.7651,0,0,0,0,0,0,0,0,0,0,0,0,0,-0.7616,-0.7615,-0.7606,-0.7606,-0.7606,-0.7613,-0.7613,-0.7613,-0.7644,-0.7645,-0.7645,-0.7646,-0.7653,-0.7652,-0.7651,0,0,0,0,0,0,0,0,0,0,0,0,0,-0.7616,-0.7615,-0.7606,-0.7622,-0.7623,-0.7613,-0.7613,-0.7613,-0.7644,-0.7645,-0.7646,-0.7647,-0.7653,-0.7652,-0.7651,-0.7625,0,0,-0.7649,-0.7649,0,0,0,0,0,0,0,0,-0.7616,-0.7616,-0.7619,-0.7621,-0.7623,-0.7629,-0.7619,-0.7617,-0.7643,-0.7636,-0.7646,-0.7647,-0.7644,-0.7644,-0.7643,-0.7626,-0.7626,-0.7649,-0.7649,-0.7648,-0.7648,0,0,0,0,0,0,0,-0.7616,-0.7615,-0.7609,-0.7619,-0.7621,-0.7628,-0.7629,-0.7619,-0.7634,-0.7637,-0.7639,-0.7639,-0.7645,-0.7643,-0.7643,-0.7626,-0.7649,-0.7648,-0.7648,-0.7648,-0.7586,-0.7585,0,0,0,0,0,0,-0.7614,-0.7615,-0.7608,-0.7609,-0.7622,-0.7627,-0.7629,-0.7626,-0.7634,-0.7636,-0.7638,-0.7641,-0.7644,-0.7644,-0.7643,-0.7612,-0.7648,-0.7648,-0.7647,-0.7587,-0.7586,-0.7585,0,0,0,0,0,0,-0.7614,-0.7613,-0.7608,-0.7613,-0.7613,-0.7626,-0.7622,-0.7625,-0.7624,-0.7635,-0.7638,-0.7635,-0.7645,-0.7644,-0.7629,-0.7613,-0.7647,-0.7647,-0.7589,-0.7587,-0.7585,-0.755,0,0,0,0,0,0,-0.7614,-0.7613,-0.7604,-0.7612,-0.7612,-0.7594,-0.7621,-0.7625,-0.7623,-0.7626,-0.7632,-0.7634,-0.7646,-0.763,-0.7629,-0.7612,-0.7646,-0.759,-0.7588,-0.7586,-0.7553,-0.7548,-0.7543,0,0,0,0,0,-0.7614,-0.7594,-0.7603,-0.7602,-0.7601,-0.7593,-0.7593,-0.7607,-0.7621,-0.7612,-0.7619,-0.7634,-0.7615,-0.7628,-0.7627,-0.761,-0.7591,-0.7589,-0.7586,-0.7555,-0.7549,-0.7543,0,0,0,0,0,0,-0.7583,-0.7595,-0.7606,-0.7587,-0.7589,-0.7599,-0.7587,-0.76,-0.7598,-0.76,-0.7617,-0.7618,-0.76,-0.7604,-0.7619,-0.7585,-0.7606,-0.7603,-0.7583,-0.7577,-0.7572,-0.7571,-0.7645,0,0,0,0,0,-0.7574,-0.7567,-0.7578,-0.7561,-0.7561,-0.7574,-0.7571,-0.7581,-0.7584,-0.7584,-0.7591,-0.7592,-0.7586,-0.7582,-0.7577,-0.7554,-0.7555,-0.7542,-0.7537,-0.7532,-0.7529,-0.7515,-0.7509,-0.7576,-0.7576,-0.7576,0,0,-0.7555,-0.7561,-0.7556,-0.7555,-0.7557,-0.7549,-0.7574,-0.7565,-0.7558,-0.7583,-0.7569,-0.7573,-0.7575,-0.7555,-0.7547,-0.7558,-0.7511,-0.7529,-0.7525,-0.7525,-0.7512,-0.7506,-0.75,-0.7574,-0.7574,-0.7575,0,0,-0.7517,-0.7521,-0.7506,-0.7508,-0.7512,-0.752,-0.7516,-0.7523,-0.7527,-0.7513,-0.7531,-0.7523,-0.7513,-0.7514,-0.7512,-0.7472,-0.7486,-0.747,-0.7444,-0.743,-0.7425,-0.742,-0.7404,-0.7399,-0.7467,-0.7467,-0.7467,0,-0.7493,-0.7482,-0.7497,-0.7486,-0.7484,-0.7506,-0.749,-0.7491,-0.7493,-0.7491,-0.7503,-0.749,-0.7493,-0.7473,-0.7462,-0.7461,-0.7457,-0.7469,-0.7424,-0.742,-0.7416,-0.7401,-0.7395,-0.7465,-0.7465,-0.7466,-0.7466,0,-0.7451,-0.7443,-0.7431,-0.7431,-0.7428,-0.7415,-0.7427,-0.7422,-0.7432,-0.7439,-0.7424,-0.7428,-0.7424,-0.742,-0.743,-0.7401,-0.7407,-0.7422,-0.7443,-0.7407,-0.7393,-0.7388,-0.7462,-0.7463,-0.7464,-0.7464,0,0,-0.7394,-0.7402,-0.7397,-0.7397,-0.7402,-0.7395,-0.7382,-0.7378,-0.7373,-0.7373,-0.7361,-0.7352,-0.7364,-0.7363,-0.7373,-0.7361,-0.7327,-0.7377,-0.7378,-0.7367,-0.7293,-0.7281,-0.7274,-0.7336,-0.7335,-0.7335,-0.7292,0,-0.7356,-0.7335,-0.7347,-0.7324,-0.7315,-0.7335,-0.7323,-0.7324,-0.733,-0.7323,-0.7329,-0.7321,-0.734,-0.7339,-0.7328,-0.7334,-0.7312,-0.7337,-0.7325,-0.7324,-0.7323,-0.7267,-0.7255,-0.7215,-0.7287,-0.7286,-0.7286,0,-0.7309,-0.7306,-0.7282,-0.7286,-0.7283,-0.7273,-0.7269,-0.7263,-0.7264,-0.7268,-0.7266,-0.7279,-0.7265,-0.7286,-0.7267,-0.7284,-0.7279,-0.7281,-0.728,-0.7278,-0.7302,-0.7263,-0.7203,-0.7196,-0.7278,-0.7278,-0.7279,0,-0.7268,-0.7258,-0.7242,-0.7241,-0.7246,-0.7238,-0.724,-0.7242,-0.7238,-0.7235,-0.7232,-0.7227,-0.7224,-0.722,-0.723,-0.7245,-0.7209,-0.7232,-0.7211,-0.7211,-0.7202,-0.7202,-0.7139,-0.7201,-0.7201,-0.7201,-0.7201,0,-0.7223,-0.7207,-0.7223,-0.7213,-0.7194,-0.7209,-0.719,-0.7194,-0.7195,-0.7185,-0.7203,-0.7193,-0.7208,-0.7199,-0.7207,-0.7189,-0.7188,-0.719,-0.7192,-0.7188,-0.7187,-0.7185,-0.7187,-0.72,-0.72,-0.72,-0.7201,0,-0.7174,-0.7184,-0.7167,-0.7173,-0.7174,-0.716,-0.7165,-0.7155,-0.7162,-0.7149,-0.7147,-0.7156,-0.7147,-0.7157,-0.7148,-0.7154,-0.7129,-0.7136,-0.7128,-0.713,-0.7108,-0.711,-0.704,-0.7031,-0.71,-0.7099,-0.7099,0,-0.7145,-0.7132,-0.7137,-0.7131,-0.7132,-0.7123,-0.7119,-0.7132,-0.7127,-0.7126,-0.7116,-0.7108,-0.7102,-0.7086,-0.7092,-0.7085,-0.7091,-0.7067,-0.709,-0.7085,-0.7089,-0.7089,-0.7087,-0.7062,-0.7061,-0.706,-0.706,0,-0.7091,-0.7096,-0.709,-0.7084,-0.7079,-0.7075,-0.7073,-0.7068,-0.7081,-0.7074,-0.7065,-0.706,-0.7051,-0.7042,-0.7036,-0.7037,-0.705,-0.7053,-0.7047,-0.7042,-0.7038,-0.7039,-0.7114,-0.7054,-0.7055,-0.7055,-0.7055,-0.7056,-0.705,-0.7039,-0.704,-0.7032,-0.7031,-0.7028,-0.7019,-0.7024,-0.7016,-0.701,-0.7018,-0.7005,-0.7005,-0.6999,-0.6998,-0.6988,-0.6998,-0.6991,-0.6989,-0.6986,-0.6983,-0.704,-0.6987,-0.6988,-0.6988,-0.6988,-0.6988,0,-0.6995,-0.6997,-0.6989,-0.6985,-0.6978,-0.6991,-0.6989,-0.6982,-0.6971,-0.697,-0.6963,-0.6951,-0.6943,-0.6947,-0.6939,-0.693,-0.6936,-0.6928,-0.6928,-0.6927,-0.6975,-0.698,-0.6923,-0.6923,-0.6923,-0.6923,-0.6923,-0.6923,-0.6966,-0.6949,-0.6954,-0.6935,-0.6937,-0.6925,-0.6922,-0.6919,-0.6918,-0.6904,-0.6896,-0.6899,-0.69,-0.6892,-0.6884,-0.6886,-0.6881,-0.6871,-0.6874,-0.6918,-0.6924,-0.693,-0.6935,-0.687,-0.687,-0.6827,-0.6827,-0.6827]}]]